Location: *
(51.0333°S, 178.4667°E)
Time: 06:21:27
(UTC+00:00)

CZ-4 R/B - Pass Details

Date: 01 March 2020
Orbit: 531 x 599 km, 97.8° (Epoch: 07 April)

Event Time Altitude Azimuth Distance (km) Brightness Sun altitude
Rises 07:38:13 0° 167° (SSE) 2,850 5.1 -6.5°
Reaches altitude 10° 07:40:23 10° 168° (SSE) 1,951 4.2 -6.8°
Maximum altitude 07:44:38 82° 253° (WSW) 616 1.7 -7.4°
Drops below altitude 10° 07:48:54 10° 341° (NNW) 1,951 4.1 -8.1°
Sets 07:51:04 0° 342° (NNW) 2,850 4.9 -8.4°
